Simultaneous Nadir Overpasses (SNOs) Predictions

Prediction of SNOs between METOP-B and NOAA-19 Satellite Orbit:

Table of predicted SNOs for the next 14.0 days since TLE Epoch: 8/17/2013
Index Date (METOP-B) Time (METOP-B) Lat,Lon (METOP-B) SZA (METOP-B ) Date (NOAA-19) Time (NOAA-19) Lat,Lon (NOAA-19) SZA (NOAA-19 ) Distance(km) Time Diff (sec)
1 08/23/2013 08:51:26 73.53, 41.07 62.23 08/23/2013 08:50:12 73.53, 40.74 62.25 10.31 74
2 08/23/2013 09:42:09 -73.45,-151.78 117.83 08/23/2013 09:41:09 -73.44,-151.80 117.84 1.96 60
3 08/23/2013 10:32:49 73.41, 15.45 62.14 08/23/2013 10:32:13 73.41, 15.50 62.15 1.54 36
4 08/23/2013 11:23:32 -73.38,-177.28 117.87 08/23/2013 11:23:13 -73.42,-177.27 117.83 3.79 19
5 08/23/2013 12:14:11 73.39, -9.93 62.15 08/23/2013 12:14:17 73.39, -9.97 62.15 1.12 6
6 08/23/2013 13:04:54 -73.36, 157.34 117.86 08/23/2013 13:05:16 -73.35, 157.37 117.88 1.92 22
7 08/23/2013 13:55:34 73.32, -35.43 62.11 08/23/2013 13:56:20 73.32, -35.32 62.10 3.40 46
8 08/23/2013 14:46:16 -73.34, 131.95 117.86 08/23/2013 14:47:20 -73.33, 131.90 117.88 2.44 64
9 08/23/2013 15:37:06 72.79, -61.90 61.66 08/23/2013 15:38:14 72.80, -59.69 61.57 72.65 68




NCC Satellite Simultaneous Nadir Overpasses (SNOs) Prediction Service
